Presure
242 202 247 262 228 265 243 223 76 91 78 95 155 193 99 151 130 175 174 172 160 193 171 158 85 90 81 95 87 118 115 89 100 101 96 93 94 98 99 95 93 101 100
297 217 258 253 193 251 261 191 185 86 96 190 156 174 156 174 108 192 187 184 153 186 192 84 99 98 98 91 90 150 85 94 90 88 83 95 100 109 101 171 95 93 90
291 259 248 240 241 247 239 188 234 231 220 82 95 174 158 94 110 109 180 165 190 139 185 171 96 104 92 116 125 91 90 92 82 92 92 92 92 91 92 95 93 92 99
279 250 242 247 248 238 241 219 181 210 205 190 122 197 83 189 130 95 189 179 183 137 146 171 176 92 116 122 157 101 97 95 93 89 91 91 89 90 87 105 94 95 90
259 240 246 255 232 217 207 165 166 164 191 188 192 171 157 175 116 173 113 180 181 180 127 138 142 175 157 122 146 135 136 104 113 164 93 99 95 84 85 82 93 92 92
238 239 194 237 203 194 179 164 179 181 170 188 178 179 187 187 178 172 174 184 120 111 106 99 83 184 130 132 137 105 137 84 90 92 99 98 159 145 96 93 93 91 93
235 275 245 226 201 182 169 170 159 166 182 175 162 179 179 188 82 82 193 186 190 121 110 172 113 176 122 123 169 88 134 95 82 93 102 83 88 96 97 90 84 87 96
255 222 231 219 202 190 188 174 172 159 186 168 187 179 180 180 178 176 100 163 176 183 177 111 179 119 153 160 162 161 148 135 134 155 99 82 134 132 109 82 133 103 127
218 208 193 199 198 192 191 180 181 186 170 166 166 173 182 176 182 181 174 128 77 89 129 183 190 194 174 152 169 115 129 156 116 185 136 163 99 106 168 92 101 143 169
210 189 212 172 191 195 203 180 191 173 168 162 166 187 171 181 170 168 177 179 180 80 183 173 101 168 161 103 99 96 102 176 191 116 121 142 134 126 127 90 190 177 90
204 212 200 206 177 178 182 187 176 180 175 166 178 165 184 173 167 174 165 166 183 172 176 166 166 181 118 78 187 147 77 77 105 172 184 121 121 176 145 127 166 176 133
199 189 204 185 192 182 191 183 175 184 164 178 174 173 166 190 175 182 174 170 170 176 175 183 193 177 150 97 81 169 177 176 149 173 97 88 126 178 156 113 113 153 179
190 193 192 192 180 197 202 177 192 191 181 183 156 169 171 178 161 190 193 185 196 166 185 188 187 181 181 171 177 179 178 183 93 146 92 100 164 177 164 166 175 181 204
180 201 190 167 174 170 182 205 183 166 189 180 188 170 163 183 173 159 162 168 160 160 163 164 171 185 172 172 172 178 181 176 179 186 174 163 173 184 163 181 166 165 101
190 198 188 188 172 183 189 194 199 182 176 169 177 173 188 173 172 190 170 176 178 173 169 174 171 172 168 180 168 170 171 169 181 176 184 183 177 172 179 179 202 199 200
195 199 180 189 206 197 183 177 193 184 175 187 169 195 170 178 190 187 173 179 177 171 174 171 169 180 187 180 190 174 177 181 174 183 179 171 188 199 182 189 204 195 185
178 191 192 190 188 163 206 180 193 170 183 188 188 190 179 180 164 176 170 168 184 178 169 180 180 164 187 178 175 167 172 176 182 170 170 181 179 203 179 208 198 182 180
182 176 168 165 174 198 192 200 208 172 178 185 177 180 171 179 183 171 168 179 167 166 169 175 180 181 172 175 173 182 183 172 185 175 198 198 205 203 200 193 189 179 189
192 183 173 163 204 176 179 204 202 191 168 202 177 187 186 178 191 174 186 178 185 185 173 170 173 177 171 176 185 182 190 174 202 220 196 177 174 195 183 179 183 181 173
191 185 181 178 167 162 198 180 195 165 201 180 177 173 173 178 184 175 176 178 170 183 170 157 187 183 176 186 176 180 208 162 171 170 188 194 191 187 182 177 175 175 174
182 190 182 173 175 171 162 212 161 200 194 175 175 183 178 177 180 182 193 189 163 181 188 189 163 170 180 169 170 171 180 196 195 193 188 188 180 169 172 177 177 164 162
184 181 190 187 174 174 170 168 159 166 163 186 185 183 151 193 191 178 167 182 193 192 187 185 194 202 202 190 205 201 196 196 187 177 166 163 165 167 164 174 175 159 166
192 169 170 181 188 181 175 173 168 164 167 162 165 164 177 192 193 195 196 197 188 177 182 204 190 189 188 188 200 171 172 161 162 162 156 162 177 180 176 169 167 174 175
188 192 182 176 181 191 187 178 175 170 166 171 166 166 171 165 165 160 167 170 164 181 169 200 203 177 173 176 181 164 171 167 162 158 172 172 169 168 162 171 172 171 168
217 187 191 176 187 178 177 191 189 181 174 172 169 172 172 167 169 165 176 164 164 153 153 154 168 163 162 169 169 171 169 169 170 164 169 163 163 163 169 180 172 173 176
191 213 203 184 120 178 190 178 183 194 192 185 179 176 170 167 172 173 165 169 174 175 176 170 173 166 165 163 173 180 176 168 169 170 176 180 175 175 174 160 161 173 165
Wind_Speed
38 37 22 21 23 25 29 31 29 30 30 32 48 39 38 34 25 49 46 41 38 31 38 31 27 30 23 29 24 36 35 25 31 33 29 26 25 28 28 25 23 27 27
20 26 22 25 26 18 30 24 31 37 36 51 43 50 49 51 36 45 45 46 39 38 34 28 34 40 34 32 31 45 23 27 28 27 22 27 31 41 31 45 27 26 24
17 21 24 26 29 26 22 22 33 29 30 42 42 52 41 41 44 40 45 42 42 48 36 39 43 44 33 44 45 34 32 33 24 31 30 29 29 28 29 31 29 28 32
26 22 26 24 21 20 20 18 24 25 35 40 39 46 43 43 43 49 44 45 42 29 45 43 37 37 46 44 45 44 41 41 37 33 35 32 30 32 31 41 32 33 30
24 22 20 25 24 25 22 27 36 38 20 37 37 43 45 48 52 48 54 44 43 39 53 50 48 40 38 41 41 53 53 51 49 46 39 42 39 31 31 29 36 35 37
18 18 16 33 37 37 36 37 19 37 41 26 38 48 38 45 47 48 48 43 54 53 34 39 29 40 54 55 56 34 58 32 33 37 45 44 55 50 43 40 39 36 41
16 16 44 43 43 40 38 37 43 45 47 44 48 45 48 43 40 40 45 47 44 54 58 43 54 41 55 57 44 28 44 41 33 41 43 34 39 47 49 41 36 38 47
16 35 51 57 44 39 54 47 54 46 36 48 43 46 45 47 47 49 56 45 41 40 44 60 44 58 53 48 47 50 60 61 60 58 55 39 53 45 45 41 55 56 57
35 32 26 40 40 44 53 50 63 58 51 45 44 44 52 47 50 49 47 41 35 48 37 46 48 47 45 57 47 58 58 58 56 44 61 56 39 45 45 47 58 62 56
40 19 53 22 38 54 55 48 65 51 45 46 52 55 49 53 48 48 54 50 47 37 49 45 43 47 49 62 60 55 57 51 43 65 63 66 66 66 60 51 49 60 49
38 53 34 59 26 29 45 64 50 60 51 43 56 46 55 57 50 57 48 48 53 49 50 47 49 44 53 45 41 45 42 41 64 55 49 66 67 53 66 68 60 64 56
31 31 48 40 48 32 56 57 53 46 44 57 50 53 55 57 54 54 52 51 53 52 54 46 47 48 50 46 50 49 51 53 65 56 53 56 61 54 63 69 70 69 66
32 39 32 42 36 52 65 41 67 70 64 63 40 54 54 63 44 50 53 52 41 46 52 46 40 45 43 54 52 54 54 54 61 57 62 62 64 62 63 69 62 66 61
34 49 43 36 32 34 41 65 52 37 65 58 68 53 46 71 63 45 47 48 49 48 48 50 49 51 53 52 51 51 54 55 54 54 59 61 60 60 73 64 70 70 68
39 49 45 45 40 45 48 60 66 53 49 45 58 58 61 54 56 73 61 61 63 55 56 60 55 58 57 62 54 53 52 55 57 56 56 56 62 67 64 66 61 57 50
42 53 43 50 61 61 52 42 65 56 49 65 50 64 50 56 71 68 61 66 63 59 60 59 56 59 63 59 65 60 62 59 58 61 61 66 68 67 62 62 57 53 55
43 47 52 54 54 46 70 52 67 47 56 66 71 68 61 62 51 60 57 57 69 64 59 70 64 59 66 60 60 60 60 62 62 64 66 67 66 65 61 54 53 55 56
46 48 51 52 53 68 61 74 72 51 52 66 57 63 55 66 67 58 59 68 61 59 59 64 67 62 60 63 64 65 66 61 63 66 69 64 59 57 56 52 51 56 54
49 51 51 54 57 51 51 69 72 71 56 73 58 69 72 64 76 66 74 69 77 82 67 65 67 71 66 68 71 72 73 62 73 68 61 59 60 54 56 58 54 56 59
51 53 53 53 55 55 70 54 66 55 75 60 59 60 63 67 74 67 68 69 64 70 66 62 76 70 65 72 64 64 74 66 64 65 62 60 57 55 57 59 59 60 62
53 55 59 57 59 60 61 72 58 82 79 56 57 69 69 68 70 74 80 83 66 75 81 83 64 66 67 64 65 63 67 67 64 61 59 60 59 62 64 63 63 66 67
59 60 62 66 64 66 66 64 64 62 59 71 77 72 61 76 75 67 66 75 80 80 79 74 80 83 83 72 81 75 68 66 63 63 63 65 65 65 67 66 66 71 70
65 61 62 65 68 69 69 69 68 67 66 69 69 68 72 73 76 79 79 78 75 68 74 78 76 74 72 71 72 64 64 65 64 67 69 68 68 70 70 69 69 70 71
70 68 68 68 71 71 75 75 75 72 72 75 73 71 70 72 71 70 68 69 70 70 69 72 73 68 66 68 69 67 67 68 69 70 69 69 69 70 72 73 74 72 72
64 74 73 72 75 75 75 77 80 80 80 79 76 75 76 75 74 74 72 74 75 75 74 74 71 70 70 69 69 70 70 69 69 72 72 70 74 75 77 81 75 76 78
60 68 75 76 51 79 81 78 79 83 86 84 82 81 79 78 78 78 77 77 77 77 77 76 76 73 72 73 75 77 74 73 72 75 81 84 81 80 78 75 77 82 81
Wind_Direction
290 280 241 216 237 225 205 219 256 249 253 246 232 229 226 242 235 252 254 250 248 244 237 245 239 231 243 235 239 234 237 234 230 231 237 243 245 244 248 252 253 251 254
275 266 199 200 256 205 184 216 230 243 248 219 230 241 242 244 235 238 241 246 250 244 231 244 244 244 236 238 243 236 240 241 242 243 245 243 241 237 246 240 254 253 252
225 204 202 209 201 183 196 219 185 169 189 244 239 233 226 234 239 238 243 241 239 233 235 235 243 243 242 237 234 239 240 240 246 246 247 246 247 250 249 251 254 256 255
183 184 195 196 192 187 173 188 220 205 200 219 233 208 246 225 247 241 235 244 244 242 236 232 238 247 241 243 233 246 245 245 245 244 248 247 250 250 254 248 257 257 258
160 180 175 164 157 145 171 241 227 231 220 213 207 232 229 236 233 242 240 242 242 238 235 235 236 236 239 241 236 239 239 247 244 241 246 247 248 249 251 256 252 254 258
173 170 233 151 161 137 165 228 232 232 226 219 217 220 211 219 235 241 241 239 242 242 241 238 244 236 239 239 238 242 241 240 243 245 247 245 245 246 251 250 251 249 253
160 174 147 155 169 178 218 196 237 236 236 229 239 227 228 224 259 261 232 238 243 245 241 240 241 235 243 243 235 253 241 250 244 249 244 249 246 249 249 250 257 256 257
167 150 148 155 172 181 181 204 208 244 229 235 217 222 229 228 235 241 252 241 240 246 240 243 238 242 231 233 233 234 242 248 248 241 255 253 250 248 246 263 256 261 258
153 167 199 183 182 185 184 204 203 209 230 238 240 230 223 233 226 235 243 246 243 259 247 246 247 248 239 235 239 248 248 243 251 252 251 249 258 257 256 256 260 250 251
173 241 166 241 203 185 191 210 200 231 235 243 241 213 232 226 238 241 239 245 246 248 248 248 246 244 237 251 253 253 249 247 247 248 251 251 256 255 258 264 254 251 265
189 178 205 175 235 222 205 201 223 217 223 241 223 249 226 235 242 236 245 245 243 243 247 246 249 248 252 254 248 248 259 261 253 248 252 253 255 254 256 258 255 254 258
210 232 195 201 200 234 196 211 228 226 236 225 226 234 243 235 242 240 238 244 247 245 253 251 245 253 253 250 251 248 244 246 251 248 263 267 259 252 256 254 254 254 257
228 221 230 212 223 208 201 236 214 220 228 219 250 237 239 238 248 247 248 243 252 248 242 241 236 245 243 247 247 248 249 247 256 252 262 263 254 255 255 255 261 259 270
244 216 235 239 243 235 238 209 222 243 226 231 224 246 249 232 238 247 251 248 249 248 253 251 250 235 251 255 256 258 256 261 259 260 256 257 259 260 257 257 259 261 263
231 220 232 237 235 230 231 218 214 228 236 244 230 235 226 242 241 238 246 245 246 245 253 253 257 256 255 253 258 259 258 256 261 257 262 256 259 254 260 262 275 272 270
233 224 236 235 222 225 237 239 225 234 238 227 247 226 243 239 232 236 249 246 249 253 254 251 257 261 257 264 259 260 261 268 260 269 263 257 269 273 264 270 275 270 265
244 236 232 236 240 244 225 243 229 242 242 234 231 233 244 243 249 247 251 250 246 252 254 257 261 255 267 264 261 256 260 263 267 259 261 266 268 274 268 273 272 266 266
242 244 247 250 248 236 239 230 228 240 243 235 247 244 247 247 246 254 253 252 252 252 254 258 261 261 260 262 262 267 266 258 267 260 273 272 274 272 271 271 271 267 273
247 244 244 250 239 244 245 241 238 240 243 236 245 243 245 252 245 254 254 256 258 258 259 259 261 260 258 263 271 270 272 262 274 273 269 266 266 271 269 266 269 269 267
248 249 249 248 249 252 241 248 248 247 246 249 247 249 251 253 253 255 254 255 253 259 255 254 260 261 261 266 266 268 274 260 264 263 269 269 268 269 268 267 267 268 268
245 244 245 245 245 247 250 241 252 249 251 249 252 254 253 251 252 257 260 258 251 259 265 266 257 260 261 260 260 263 267 270 268 268 268 268 267 265 266 267 268 268 270
247 246 242 240 242 242 244 244 247 246 246 248 249 250 253 252 253 256 252 257 259 259 263 263 265 264 267 265 267 268 267 265 264 263 265 265 266 266 267 270 269 266 271
246 251 254 246 247 246 248 248 247 247 245 245 244 246 251 252 253 254 256 258 258 259 261 262 263 265 265 265 263 261 261 260 261 262 261 266 273 271 271 271 269 276 276
254 249 248 251 247 246 246 248 249 250 250 250 250 249 249 250 250 254 254 255 255 258 256 260 261 260 261 262 263 259 262 261 261 262 271 272 270 269 266 271 273 271 271
257 253 249 254 248 252 251 248 248 249 250 251 252 253 253 252 252 252 255 253 252 257 258 257 257 256 256 259 261 262 262 264 267 268 268 263 265 266 269 272 271 271 274
263 256 253 253 257 255 251 254 252 250 250 251 253 255 255 255 255 253 253 253 256 258 260 257 260 257 257 258 262 263 264 263 265 267 269 269 269 269 270 265 265 271 266